User: anonymous   Login
Location: Borea
(45.6167°N, 23.0167°E)
Time: 12:50:40
(UTC+00:00)
Language:

Cosmos 1892 Rocket - Orbit

View from above orbital plane
View from above orbital plane
View from above satellite
View from above satellite

Ground track
Ground track

The orbit data is extracted from the following two-line orbital elements,

1 18422U 87088B   24260.83755682  .00001720  00000-0  20148-3 0  9994
2 18422  82.5119 213.7566 0018844 356.8029   3.3063 14.84380666973340
Epoch (UTC): 16 September 2024 20:06:04
Eccentricity: 0.0018844
inclination: 82.5119°
perigee height: 602 km
apogee height: 629 km
right ascension of ascending node: 213.7566°
argument of perigee: 356.8029°
revolutions per day: 14.84380666
mean anomaly at epoch: 3.3063°
orbit number at epoch: 97334

The dashed part of the orbit path shows where the satellite is in the earth's shadow,  

DLR